McAlester, OK

1:43 PM CST on December 07, 2019 (GMT -0600)
McAlester Regional

Weather History for KMLC - September, 2019

Change the Weather History Date:

Saturday, September 14, 2019

  Actual Average Record
Temperature  
Mean Temperature 84 °F -  
Max Temperature 96 °F 84 °F 102 °F (1965)
Min Temperature 73 °F 63 °F 49 °F (1961)
Cooling Degree Days 20    
Growing Degree Days 34 (Base 50)    
Moisture  
Dew Point 67 °F    
Average Humidity 65    
Maximum Humidity 87    
Minimum Humidity 32    
Precipitation  
Precipitation 0.00 in - - ()
Sea Level Pressure  
Sea Level Pressure 30.12 in    
Wind  
Wind Speed 3 mph (SE)    
Max Wind Speed 9 mph    
Max Gust Speed -    
Visibility 10 miles    
Events      
Averages and records for this station are not official NWS values.
T = Trace of Precipitation, MM = Missing Value Source: NWS Daily Summary

Daily Weather History Graph

Daily Weather History Graph

Search for Another Location

Airport or City:

Astronomy

Sep. 14, 2019 Rise Set
Actual Time 7:05 AM CDT 7:31 PM CDT
Civil Twilight 6:39 AM CDT 7:56 PM CDT
Nautical Twilight 6:10 AM CDT 8:26 PM CDT
Astronomical Twilight 5:39 AM CDT 8:56 PM CDT
Moon 8:12 PM CDT (9/14) 7:21 AM CDT (9/14)
Length of Visible Light 13h 17m
Length of Day
12h 26m
Full, 100% of the Moon is Illuminated
Sep 14
Full
Sep 21
Last Quarter
Sep 28
New
Oct 5
First Quarter
Oct 13
Full

Hourly Weather History & Observations

Time (CDT) Temp. Heat Index Dew Point Humidity Pressure Visibility Wind Dir Wind Speed Gust Speed Precip Events Conditions
12:53 AM 73.9 °F - 68.0 °F 82% 30.14 in 10.0 mi NNE 3.5 mph - N/A   Clear
1:53 AM 73.0 °F - 68.0 °F 84% 30.14 in 10.0 mi Calm Calm - N/A   Clear
2:53 AM 73.9 °F - 69.1 °F 85% 30.14 in 10.0 mi Calm Calm - N/A   Clear
3:53 AM 73.0 °F - 68.0 °F 84% 30.14 in 10.0 mi Calm Calm - N/A   Scattered Clouds
4:53 AM 73.0 °F - 69.1 °F 87% 30.14 in 10.0 mi Calm Calm - N/A   Partly Cloudy
5:53 AM 73.9 °F - 69.1 °F 85% 30.15 in 10.0 mi Calm Calm - N/A   Scattered Clouds
6:53 AM 73.0 °F - 69.1 °F 87% 30.16 in 10.0 mi Calm Calm - N/A   Partly Cloudy
7:53 AM 73.9 °F - 69.1 °F 85% 30.18 in 10.0 mi East 3.5 mph - N/A   Scattered Clouds
8:53 AM 77.0 °F - 70.0 °F 79% 30.19 in 10.0 mi SE 4.6 mph - N/A   Partly Cloudy
9:53 AM 82.9 °F 86.5 °F 69.1 °F 63% 30.18 in 10.0 mi Variable 4.6 mph - N/A   Clear
10:53 AM 86.0 °F 89.4 °F 68.0 °F 55% 30.17 in 10.0 mi SE 5.8 mph - N/A   Clear
11:53 AM 90.0 °F 93.6 °F 68.0 °F 48% 30.16 in 10.0 mi Variable 6.9 mph - N/A   Clear
12:53 PM 91.9 °F 95.4 °F 66.9 °F 44% 30.14 in 10.0 mi SW 9.2 mph - N/A   Clear
1:53 PM 93.9 °F 97.0 °F 66.0 °F 40% 30.11 in 10.0 mi Variable 4.6 mph - N/A   Scattered Clouds
2:53 PM 93.9 °F 95.2 °F 63.0 °F 36% 30.09 in 10.0 mi SW 9.2 mph - N/A   Partly Cloudy
3:53 PM 96.1 °F 97.3 °F 63.0 °F 33% 30.06 in 10.0 mi Variable 6.9 mph - N/A   Scattered Clouds
4:53 PM 95.0 °F 95.2 °F 61.0 °F 32% 30.05 in 10.0 mi SSW 6.9 mph - N/A   Partly Cloudy
5:53 PM 93.0 °F 95.0 °F 64.9 °F 39% 30.05 in 10.0 mi Calm Calm - N/A   Clear
6:53 PM 86.0 °F 89.4 °F 68.0 °F 55% 30.05 in 10.0 mi Calm Calm - N/A   Overcast
7:53 PM 80.1 °F 83.2 °F 70.0 °F 71% 30.06 in 10.0 mi Calm Calm - N/A   Mostly Cloudy
8:53 PM 78.1 °F - 68.0 °F 71% 30.08 in 10.0 mi ESE 4.6 mph - N/A   Mostly Cloudy
9:53 PM 79.0 °F - 68.0 °F 69% 30.09 in 10.0 mi East 3.5 mph - N/A   Clear
10:53 PM 78.1 °F - 68.0 °F 71% 30.09 in 10.0 mi ESE 4.6 mph - N/A   Clear
11:53 PM 77.0 °F - 68.0 °F 74% 30.10 in 10.0 mi ESE 3.5 mph - N/A   Clear